Regional Weather Roundup
Issued by NWS

Home | Current Version | Previous Version | Graphics & Text | Print | Product List | Glossary On
Versions: 1 2 3 4 5 6 7 8 9 10 11 12 13 14 15 16 17 18 19 20 21 22 23 24 25 26 27 28 29 30 31 32 33 34 35 36 37 38 39 40 41 42 43 44 45 46 47 48 49 50
000
ASUS45 KPSR 230210
RWRAZ

ARIZONA HOURLY REGIONAL WEATHER ROUNDUP
NATIONAL WEATHER SERVICE PHOENIX AZ
700 PM MST SAT APR 22 2017

NOTE: FAIR INDICATES FEW OR NO CLOUDS BELOW 12,000 FEET WITH NO
SIGNIFICANT WEATHER AND/OR OBSTRUCTIONS TO VISIBILITY.

AZZ001>003-036-230300-
NORTHWEST ARIZONA

CITY           SKY/WX    TMP DP  RH WIND       PRES   REMARKS
BULLHEAD CITY  CLEAR     90  21   8 NE7       29.77F
KINGMAN        CLEAR     74  26  16 N7        29.93F
$$

AZZ004>008-015-016-018-230300-
NORTH CENTRAL ARIZONA

CITY           SKY/WX    TMP DP  RH WIND       PRES   REMARKS
GRAND CANYON   CLEAR     58  24  27 NE6       30.13S
WILLIAMS       CLEAR     66  21  18 CALM      30.12R
PRESCOTT       CLEAR     71  23  16 SW8       30.02S
FLAGSTAFF      PTCLDY    60  21  22 E10       30.13S
PAYSON         PTCLDY    73  21  14 W5        30.06S
PAGE           MOCLDY    65  19  17 NE6       30.04F
$$

AZZ009>014-017-230300-
NORTHEAST ARIZONA

CITY           SKY/WX    TMP DP  RH WIND       PRES   REMARKS
WINSLOW        PTCLDY    72  18  13 NE3       30.04F
SAINT JOHNS    PTCLDY    66  14  13 NW6       30.07S
WINDOW ROCK    CLEAR     61  18  18 NW5       30.14R
SHOW LOW       PTCLDY    61  18  18 N6        30.13R
$$

AZZ540-542>544-546-548-230300-
GREATER PHOENIX AREA

CITY           SKY/WX    TMP DP  RH WIND       PRES   REMARKS
PHOENIX        MOCLDY    92  22   8 NW8       29.76F
BUCKEYE        PTCLDY    86  37  17 CALM      29.77F
GLENDALE       MOCLDY    91  23   8 S7        29.78F
LUKE AFB       PTCLDY    91  25   9 S7        29.76S
DEER VALLEY    PTCLDY    89  20   8 CALM      29.78F
SCOTTSDALE     PTCLDY    90  21   8 W3        29.80F
MESA-FALCON    PTCLDY   N/A N/A N/A SW6       29.79F
MESA-GATEWAY   PTCLDY    90  21   8 NW5       29.79F
CHANDLER       CLEAR     91  18   6 W7        29.78S
$$

AZZ539-553-230300-
SOUTHWEST MARICOPA COUNTY AND PINAL COUNTY

CITY           SKY/WX    TMP DP  RH WIND       PRES   REMARKS
CASA GRANDE    CLEAR     88  20   8 N6        29.80S
GILA BEND      CLEAR     92  16   6 W5        29.76S
$$

AZZ503-504-507>509-230300-
SOUTHEAST ARIZONA

CITY           SKY/WX    TMP DP  RH WIND       PRES   REMARKS
TUCSON         CLEAR     88  14   6 NW14      29.87S
DAVIS-MONTHAN  CLEAR     86  16   7 NW14      29.86S
RYAN FIELD     CLEAR     88  18   7 N9        29.86S
NOGALES        CLEAR     83  11   6 W7        29.94R
SIERRA VISTA   CLEAR     77   9   7 W5        30.00R
DOUGLAS        CLEAR     83  12   7 CALM      29.94R
SAFFORD        CLEAR     84  13   7 NW8       29.86S
$$

AZZ532-230300-
SOUTHWEST ARIZONA

CITY           SKY/WX    TMP DP  RH WIND       PRES   REMARKS
YUMA           CLEAR     95  22   7 E3        29.73F
$$

CAZ041-043-047-048-061-525>527-560>570-230300-
SOUTHERN CALIFORNIA

CITY           SKY/WX    TMP DP  RH WIND       PRES   REMARKS
DOWNTOWN L.A.  CLEAR     77  43  29 CALM      29.82F
L.A. AIRPORT   PTCLDY    69  52  54 W13       29.83F
SAN DIEGO      PTCLDY    72  58  61 W3        29.87F
BURBANK        CLEAR     82  36  19 S5        29.84S
ONTARIO        PTCLDY    83  37  19 W14       29.84S
RIVERSIDE      CLEAR     82  44  26 W12       29.84R
PALM SPRINGS   CLEAR     95  26   8 E7        29.75F
EL CENTRO NAS  PTCLDY    93  23   8 S7        29.73F
IMPERIAL       PTCLDY    93  34  12 SW6       29.72S
BLYTHE         CLEAR     92  27   9 SE6       29.74F
NEEDLES        CLEAR     91  23   8 NE5       29.78F
$$

NVZ020-UTZ003-230300-
SOUTHERN NEVADA-UTAH

CITY           SKY/WX    TMP DP  RH WIND       PRES   REMARKS
LAS VEGAS      MOCLDY    81  18   9 CALM      29.85F
SALT LAKE CITY MOCLDY    58  39  49 N10       30.03F
$$

NMZ009-TXZ055-230300-
NEW MEXICO-WEST TEXAS

CITY           SKY/WX    TMP DP  RH WIND       PRES   REMARKS
ALBUQUERQUE    PTCLDY    61  30  31 E21G28    30.13R
EL PASO        CLEAR     67  34  29 E17G26    30.09R
$$


........................KEY........................
SKY/WX - SKY CONDITION/WEATHER
TMP    - TEMPERATURE IN FAHRENHEIT
DP     - DEW POINT IN FAHRENHEIT
RH     - RELATIVE HUMIDITY IN PERCENT
WIND   - DIRECTION AND SPEED IN MILES PER HOUR (MPH)
VRB    - VARIABLE WIND DIRECTION
PRES   - MEAN SEA LEVEL PRESSURE IN INCHES OF MERCURY
         F - FALLING PRESSURE   R - RISING PRESSURE
         S - STEADY PRESSURE
VSB    - VISIBILITY IN MILES
HX     - HEAT INDEX IN FAHRENHEIT
WCI    - WIND CHILL INDEX IN FAHRENHEIT
TC     - TEMPERATURE IN CELSIUS WHICH IS ALSO KNOWN AS
         TEMPERATURE IN CENTIGRADE
AFB    - AIR FORCE BASE
         LUKE AFB IS LUKE AIR FORCE BASE
         DAVIS-MONTHAN IS DAVIS-MONTHAN AIR FORCE BASE
NAS    - NAVAL AIR STATION
         EL CENTRO NAS IS EL CENTRO NAVAL AIR STATION
N/A    - NOT AVAILABLE




USA.gov is the U.S. government's official web portal to all federal, state and local government web resources and services.